Portada
METAR-TAF:

METAR-TAF

Aeroports :

Longreach, Austràlia

latitud: 23-26-03S, longitud: 144-16-49E, altitud: 191 m

Observació

L'informe es va fer fa 39 minuts, a les 05:00 UTC
Vent 9 kt del Nord/Nord-Est
Temperatura 40°C
Humitat 25%
Pressió 1005 hPa
Visibilitat 10 km o més
Núvols disperses a una alçada de 9400 ft

METAR: YLRE 120500Z AUTO 03009KT 9999 // SCT094 40/16 Q1005

Hora: 15:39 (05:39 UTC)


TAF: manca

Observacions i pronòstics meteorològics de més de 4000 aeroports (METAR i TAF).

Les estacions disponibles són els punts grocs i vermells al mapa.

Posi el ratolí al punt desitjat per veure el nom de l'estació.

Feu clic per veure les observacions i els pronòstics meteorològics.

Per canviar el mapa: feu clic els botons verds amb una creu de color negre per apropar; al botó verd amb un guió per allunyar la imatge; o en les fletxes verdes per a mapes adjacents.


METAR-TAF: